Location: Alland’huy
(49.5127°N, 4.5583°E)
Time: 15:52:08
(UTC+00:00)

Daily predictions for brighter satellites

Satellite Brightness Start Highest point End
(mag) Time Altitude Azimuth Time Altitude Azimuth Time Altitude Azimuth
Cosmos 2360 Rocket 3.5 20:25:03 10° NNW 20:30:06 31° NE 20:35:06 10° ESE
IRS-1A Rocket 4.3 20:25:04 10° SSE 20:30:34 87° ENE 20:36:07 10° NNW
Meteor 2-12 Rocket 4.5 20:26:39 10° S 20:32:47 76° E 20:38:58 10° NNE
MOS 1 Rocket 4.0 20:27:37 10° SE 20:32:50 53° ENE 20:38:01 10° N
Cosmos 2333 Rocket 3.5 20:29:44 10° NNW 20:34:51 32° NE 20:39:58 10° ESE
Cosmos 2285 Rocket 4.3 20:28:37 10° SSW 20:34:58 76° WNW 20:41:24 10° NNE
Cosmos 841 Rocket 4.1 20:30:10 10° NNW 20:35:16 48° ENE 20:40:21 10° SE
Atlas Centaur 2 4.3 20:32:15 10° SW 20:37:34 19° S 20:42:51 10° SE
Cosmos 1441 Rocket 3.1 20:34:14 10° N 20:37:49 67° ENE 20:41:26 10° SSE
SL-16 R/B 2.5 20:32:26 10° NNW 20:38:04 59° ENE 20:43:40 10° SE
ERS-1 Rocket 3.0 20:34:19 10° SSE 20:39:20 84° ENE 20:44:24 10° NNW
Cosmos 1763 Rocket 4.0 20:34:13 10° NNW 20:39:24 60° WSW 20:44:30 10° S
Cosmos 2369 4.4 20:34:02 10° NW 20:39:35 52° WSW 20:45:07 10° S
RESURS DK-1 3.3 20:37:38 10° NNW 20:41:27 36° NE 20:45:14 10° ESE
Resurs 01 Rocket 4.1 20:38:15 10° SW 20:41:28 20° W 20:44:42 10° NW
In-Cosmos 22 4.5 20:37:51 10° S 20:43:19 52° E 20:48:40 10° NNE
Cosmos 2082 Rocket 2.5 20:37:58 10° SSW 20:43:41 78° WNW 20:49:25 10° NNE
Spot 2 Rocket 3.6 20:38:54 10° SSE 20:43:56 71° ENE 20:49:00 10° N
Cosmos 1933 Rocket 3.7 20:41:22 10° NNW 20:45:47 77° W 20:50:12 10° S
Cosmos 1470 3.0 20:42:44 10° NNW 20:46:25 62° W 20:50:03 10° S
SPOT 5 3.4 20:44:28 10° S 20:48:40 50° W 20:52:56 10° NNW
Cosmos 1300 3.7 20:46:46 10° N 20:49:55 28° ENE 20:52:53 11° SE
Cosmos 1908 3.2 20:50:01 10° NNW 20:53:37 75° W 20:57:12 10° S
Cosmos 1346 Rocket 3.8 20:54:57 10° N 20:58:28 31° ENE 21:01:35 12° SE
Cosmos 1674 4.0 20:57:22 10° SW 21:00:37 37° WNW 21:03:52 10° N
ATLAS 2AS CENTAUR R/B 3.2 20:54:05 10° NW 21:00:53 56° NE 21:07:24 10° ESE
Meteor 1-22 Rocket 4.3 20:57:02 10° N 21:02:38 80° ENE 21:08:26 10° SSE
Ariane Rocket 3.1 21:03:22 10° S 21:08:27 78° WSW 21:13:35 10° NNW
Cosmos 1758 3.6 21:05:53 10° N 21:09:42 53° ENE 21:12:54 14° SSE
Meteor 1-4 Rocket 4.3 21:09:50 11° ESE 21:10:50 12° E 21:12:03 10° ENE
Cosmos 1356 Rocket 4.1 21:09:22 13° SSE 21:12:47 37° E 21:16:41 10° NNE
COSMOS 2406 4.0 21:11:20 10° SW 21:17:00 57° NW 21:22:41 10° NNE
SPOT 3 Rocket 3.7 21:12:18 10° S 21:17:25 72° WSW 21:22:36 10° NNW
Cosmos 1850 Rocket 4.4 21:13:43 10° S 21:18:40 44° ESE 21:23:36 10° NE
Meteor 1-13 Rocket 4.5 21:13:42 10° SSW 21:19:31 77° WNW 21:25:15 10° N
Cosmos 1707 Rocket 4.0 21:16:10 13° SSE 21:19:53 46° E 21:24:09 10° NNE
SL-27 R/B 3.4 21:19:33 17° SE 21:20:21 20° ESE 21:22:29 10° NE
ARIANE 5 R/B 4.0 21:17:31 11° ESE 21:20:52 27° ENE 21:24:30 10° N
Cosmos 1980 Rocket 4.3 21:17:58 10° NW 21:21:57 20° W 21:25:54 10° SW
S3M 4.2 21:16:18 10° NNW 21:22:41 75° W 21:28:59 10° S
Cosmos 2322 Rocket 2.3 21:16:59 10° NNW 21:22:42 79° ENE 21:27:28 15° SSE
Spot 1 4.3 21:19:30 10° NNE 21:23:56 61° ESE 21:28:33 10° S
Cosmos 1655 Rocket 4.1 21:23:21 10° S 21:29:44 76° E 21:36:08 10° NNE
SJ 16-02 2.5 21:28:53 17° SE 21:31:11 26° E 21:34:47 10° NE
Landsat 5 3.4 21:27:24 10° NNE 21:31:21 68° ESE 21:35:02 12° S
Cosmos 2278 4.4 21:25:58 10° NW 21:31:28 49° WSW 21:36:25 12° S
Cosmos 1741 Rocket 4.1 21:32:00 10° S 21:37:10 60° ESE 21:42:23 10° NNE
Tiangong 0.3 21:36:56 10° SSW 21:37:28 10° SSW 21:37:28 10° SSW
USA 281 3.5 21:32:45 14° SE 21:38:26 62° ENE 21:44:56 10° NNW
Cosmos 2266 Rocket 4.4 21:33:13 10° SSW 21:39:30 69° WNW 21:45:55 10° N
Cosmos 1400 Rocket 3.1 21:35:50 10° SSW 21:39:42 63° WNW 21:43:32 10° N
COSMOS 2428 4.2 21:35:40 10° NNW 21:40:36 29° NE 21:45:33 10° ESE
Cosmos 1733 Rocket 3.0 21:36:34 10° N 21:40:59 89° E 21:44:16 18° S
MetOp-A 4.1 21:37:25 15° SSE 21:41:41 81° WSW 21:46:59 10° NNW
Okean 3 3.7 21:39:26 18° SSE 21:42:13 50° E 21:46:16 10° NNE
GP-B 4.3 21:38:27 10° NNE 21:42:17 28° E 21:44:46 17° SE
Terra 3.3 21:38:36 10° SSW 21:42:47 31° W 21:47:00 10° NNW
Cosmos 968 Rocket 3.7 21:41:01 14° S 21:45:13 51° ESE 21:50:14 10° NNE
Cosmos 1814 Rocket 4.2 21:40:50 10° NNW 21:46:07 65° ENE 21:50:00 18° SE
SL-4 R/B 2.4 21:43:25 10° W 21:47:17 65° N 21:51:26 10° ENE
Cosmos 2228 Rocket 3.2 21:44:42 12° SSW 21:48:57 83° WNW 21:53:33 10° N
Cosmos 2219 Rocket 2.6 21:45:48 10° NNW 21:51:25 58° ENE 21:55:47 17° SE
Cosmos 1908 Rocket 4.3 21:48:08 10° N 21:52:17 40° ENE 21:54:53 20° SE
Cosmos 1315 Rocket 3.6 21:51:04 22° SE 21:53:03 36° E 21:56:45 10° NNE
ATLAS CENTAUR R/B 1.2 21:52:13 18° S 21:54:29 46° SE 21:57:58 10° NE
Meteor 2-10 Rocket 4.3 21:50:29 10° NNW 21:55:57 52° W 22:00:34 13° SSW
Cosmos 1953 2.7 21:55:04 10° N 21:58:50 49° ENE 22:00:51 24° SE
Cosmos 1455 2.6 21:58:39 10° N 22:02:02 44° ENE 22:03:41 25° SE
H-2A R/B 3.5 21:59:30 18° SE 22:02:11 38° ENE 22:06:09 10° N
Cosmos 1242 Rocket 3.6 22:04:20 19° E 22:04:34 20° E 22:06:40 10° NE
USA 234 3.7 21:59:23 10° ENE 22:05:53 67° NNW 22:12:21 10° WSW
Okean 1-7 3.2 22:04:58 23° SSE 22:07:29 58° E 22:11:45 10° NNE
BREEZE-M DEB (TANK) 3.0 22:06:24 10° W 22:08:27 32° SSW 22:09:08 29° S
CZ-2C R/B 3.7 22:04:36 10° NNE 22:08:58 59° E 22:11:36 23° S
Cosmos 2360 Rocket 2.5 22:08:51 10° NW 22:14:26 58° WSW 22:18:06 21° S
ALOS 2 3.9 22:11:53 16° ESE 22:14:37 32° ENE 22:18:31 10° N
RESURS DK-1 3.8 22:15:35 10° NW 22:19:03 27° WSW 22:21:10 18° SSW
Cosmos 2333 Rocket 2.5 22:13:50 10° NW 22:19:28 58° WSW 22:23:08 22° S
SL-16 R/B 3.7 22:17:08 10° NW 22:21:47 27° WSW 22:25:47 13° SSW
H-2A R/B 4.4 22:21:20 10° ENE 22:22:07 10° E 22:22:55 10° E
Atlas Centaur 2 4.3 22:20:39 10° SW 22:25:22 16° SSW 22:25:49 16° S
EXPRESS MD2 1.8 22:24:53 10° W 22:27:08 82° N 22:27:54 35° E
OPS 8737 4.0 22:24:56 10° NW 22:27:51 74° SW 22:28:45 41° SSE
SL-08 R/B 4.4 22:25:46 20° S 22:30:06 81° E 22:36:13 10° N
BREEZE-M DEB (TANK) 3.8 22:15:51 10° W 22:32:02 89° S 22:36:07 10° E
Aureole 3 4.3 22:30:50 16° SW 22:33:42 47° WNW 22:38:13 10° N
Cosmos 1703 Rocket 3.6 22:32:44 27° S 22:35:06 75° E 22:39:35 10° NNE
Cosmos 1833 4.2 22:30:08 11° SSW 22:35:32 84° WNW 22:41:13 10° NNE
DNEPR-1 R/B 4.4 22:29:42 10° NW 22:36:31 74° SW 22:39:56 25° SSE
Meteor 1-4 Rocket 3.4 22:41:49 21° SW 22:43:20 35° WNW 22:46:09 10° N
Cosmos 839 Rocket 4.3 22:37:13 10° NW 22:44:02 58° WSW 22:47:42 25° S
Cosmos 1932 4.4 22:38:31 12° SSW 22:44:23 75° SE 22:50:40 10° NE
Cosmos 2322 3.7 22:40:16 10° NNW 22:46:00 84° ENE 22:49:29 25° SSE
Cosmos 2237 Rocket 3.5 22:41:50 10° NNW 22:47:04 35° NE 22:52:14 10° ESE
BlueWalker 3 3.6 22:50:04 18° ESE 22:50:04 18° ESE 22:51:41 10° E
ATLAS 2AS CENTAUR R/B 3.2 22:45:18 10° NW 22:51:39 43° WSW 22:55:16 23° S
SL-27 R/B 4.3 22:51:04 10° WSW 22:53:14 20° WNW 22:55:25 10° N
Cosmos 405 Rocket 4.5 22:51:02 10° NNE 22:54:03 23° ENE 22:55:58 16° ESE
Cosmos 2227 Rocket 4.3 22:53:36 10° ESE 22:55:38 12° E 22:57:42 10° ENE
ARIANE 5 R/B 3.5 22:54:58 23° SSW 22:57:07 38° W 23:01:11 10° NNW
PSLV R/B 4.4 22:56:35 10° N 23:00:31 55° WNW 23:02:51 22° SW
Okean 2 4.5 23:00:22 18° SW 23:02:55 37° WNW 23:06:42 10° N
Cosmos 2322 Rocket 4.0 23:02:09 10° NW 23:06:04 19° W 23:09:15 12° SW
Cosmos 1570 Rocket 4.1 23:01:18 10° NNW 23:06:37 68° WSW 23:09:22 29° S
Meteor 2-5 Rocket 4.4 23:03:31 24° SSE 23:06:39 44° E 23:12:10 10° NNE
PSLV R/B 4.2 23:03:30 10° NNE 23:07:32 40° E 23:08:58 30° SE
Cosmos 1703 3.8 23:06:48 32° SE 23:07:49 40° E 23:11:18 10° NNE
Cosmos 1745 Rocket 4.0 23:05:11 24° S 23:09:17 85° W 23:15:42 10° N
SJ 16-02 2.6 23:05:35 11° SW 23:09:22 37° WNW 23:13:26 10° N
COSMOS 2455 3.4 23:08:59 27° SSE 23:11:42 42° ESE 23:17:20 10° NE
Cosmos 2297 Rocket 3.2 23:13:10 24° SE 23:15:24 32° ESE 23:20:20 10° NE
Nadezhda 1 Rocket 4.3 23:11:46 10° NNW 23:17:57 58° W 23:21:42 24° SSW
Cosmos 2181 Rocket 4.4 23:12:10 10° N 23:18:16 54° ENE 23:22:13 22° SE
GP-B 4.4 23:15:31 10° NNW 23:19:29 33° W 23:22:05 18° SW
Cosmos 1408 2.0 23:22:14 55° SW 23:22:44 72° W 23:25:43 10° N
USA 281 4.2 23:19:37 19° SSW 23:23:18 32° WSW 23:29:07 10° NW
COSMOS 2428 2.8 23:19:39 10° NW 23:25:17 64° WSW 23:28:12 29° S
SL-4 R/B 2.0 23:22:13 10° WNW 23:26:18 82° NNE 23:30:37 10° ESE
GEOS 3 Rocket 4.1 23:24:35 10° NE 23:29:30 42° ESE 23:31:28 30° S
ATLAS CENTAUR R/B 3.3 23:29:23 10° W 23:32:20 24° NW 23:35:23 10° NNE
Cosmos 1782 Rocket 4.5 23:28:28 10° NNW 23:32:28 37° W 23:34:15 25° SW
Cosmos 1953 4.5 23:31:59 10° NW 23:34:14 15° W 23:35:58 12° WSW
Cosmos 2219 Rocket 3.5 23:30:17 10° NW 23:35:00 27° WSW 23:37:28 20° SW
Cosmos 1455 4.4 23:34:15 10° NW 23:36:06 14° W 23:37:24 12° WSW
Cosmos 1242 Rocket 4.1 23:35:32 15° W 23:36:33 18° WNW 23:38:35 10° NNW
H-2A R/B 4.0 23:35:29 20° SW 23:37:11 26° W 23:40:49 10° NW
Cosmos 2208 Rocket 4.4 23:32:17 10° NNW 23:37:18 49° WSW 23:39:34 29° SSW
Cosmos 1892 3.7 23:38:13 26° ESE 23:39:06 30° E 23:42:13 10° NNE
Cosmos 158 Rocket 4.4 23:34:38 10° NNW 23:39:47 51° WSW 23:42:07 29° SSW
Cosmos 371 Rocket 3.3 23:38:59 32° S 23:41:08 71° ESE 23:45:57 10° NNE
BREEZE-M DEB (TANK) 4.1 23:39:12 10° W 23:42:54 87° SSW 23:55:56 10° ESE
NOSS 8 (E) 4.3 23:45:42 37° SW 23:47:00 85° SE 23:50:08 10° NE
Cosmos 773 Rocket 3.9 23:42:04 10° NNW 23:47:13 78° WSW 23:49:51 30° SSE
Cosmos 2151 Rocket 3.7 23:43:38 10° N 23:48:03 71° ENE 23:50:03 31° SSE
USA 234 4.4 23:42:13 10° ENE 23:48:25 47° N 23:54:36 10° WNW
ALOS 2 3.7 23:49:16 24° SW 23:50:55 32° W 23:54:53 10° NNW
GENESIS II 4.4 23:49:40 25° WSW 23:51:36 61° NW 23:55:13 10° NE
Cosmos 2263 Rocket 4.3 23:50:44 10° SE 23:53:17 13° E 23:55:50 10° ENE
Cosmos 1503 Rocket 4.1 23:51:55 30° S 23:54:36 71° ESE 23:59:53 10° NNE
Okean 2 Rocket 3.1 23:50:55 10° N 23:55:24 77° E 23:57:29 31° SSE
